Simultaneous Nadir Overpasses (SNOs) Predictions

Prediction of SNOs between AQUA and METOP-A Satellite Orbit:

Table of predicted SNOs for the next 14.0 days since TLE Epoch: 6/29/2018
Index Date (AQUA) Time (AQUA) Lat,Lon (AQUA) SZA (AQUA ) Date (METOP-A) Time (METOP-A) Lat,Lon (METOP-A) SZA (METOP-A ) Distance(km) Time Diff (sec)
1 07/02/2018 09:26:44 74.41, 31.39 51.47 07/02/2018 09:25:36 74.41, 31.49 51.49 3.27 68
2 07/02/2018 10:16:11 -74.45,-161.07 128.48 07/02/2018 10:16:17 -74.43,-161.12 128.50 2.31 6
3 07/02/2018 11:05:41 74.61, 6.18 51.70 07/02/2018 11:06:53 74.63, 6.72 51.68 16.31 72
4 07/05/2018 05:00:59 74.42, 97.79 51.73 07/05/2018 04:59:53 74.41, 97.90 51.73 3.25 66
5 07/05/2018 05:50:26 -74.45, -94.65 128.23 07/05/2018 05:50:34 -74.43, -94.71 128.25 2.81 8
6 07/05/2018 06:39:58 74.72, 72.33 52.07 07/05/2018 06:41:08 74.72, 73.38 52.01 30.96 70
7 07/08/2018 00:35:13 74.39, 164.31 51.99 07/08/2018 00:34:10 74.40, 164.29 52.02 2.12 63
8 07/08/2018 01:24:41 -74.47, -28.24 127.93 07/08/2018 01:24:50 -74.48, -28.18 127.91 2.73 9
9 07/08/2018 02:14:14 74.79, 138.59 52.44 07/08/2018 02:15:24 74.77, 139.91 52.35 38.61 70
10 07/10/2018 20:09:27 74.41,-129.31 52.36 07/10/2018 20:08:26 74.40,-129.32 52.36 1.43 61
11 07/10/2018 20:58:55 -74.49, 38.15 127.56 07/10/2018 20:59:06 -74.48, 38.22 127.57 2.26 11
12 07/10/2018 21:48:29 74.87,-155.16 52.87 07/10/2018 21:49:38 74.86,-153.44 52.77 50.09 69
13 07/13/2018 15:43:41 74.39, -62.82 52.73 07/13/2018 15:42:43 74.39, -62.94 52.75 3.55 58
14 07/13/2018 16:33:09 -74.46, 104.65 127.19 07/13/2018 16:33:23 -74.48, 104.62 127.17 2.17 14




NCC Satellite Simultaneous Nadir Overpasses (SNOs) Prediction Service
